Dewpoint
62 62 62 61 61 61 59 60 60 60 61 60 60 60 60 61 62 62 62 63 63 63 65 67 69 70 70 71 71 71 70 70 67 66 69 70 71 71 71 71 72 72 70
61 60 59 59 60 59 59 58 59 59 60 60 60 59 59 60 60 60 59 60 60 60 61 62 63 64 67 69 70 70 70 71 70 68 69 70 70 71 72 73 71 69 71
58 56 57 57 57 57 58 58 58 58 58 58 59 59 59 59 59 59 60 60 60 61 62 61 60 61 63 65 67 69 69 70 71 70 68 71 71 72 70 71 71 72 71
57 57 58 57 57 56 57 57 57 57 56 57 58 58 58 58 56 56 57 59 59 58 59 59 61 60 60 63 65 68 69 69 68 68 67 67 66 69 70 69 70 72 71
57 56 57 58 58 57 57 57 56 56 56 56 56 57 56 55 52 55 55 57 57 57 59 59 60 62 63 63 65 66 67 68 69 69 67 65 64 64 66 65 69 72 74
57 56 57 57 57 56 56 55 55 54 54 54 54 54 54 50 54 54 55 54 54 56 56 57 58 60 62 62 62 62 64 64 65 68 67 66 66 66 64 65 62 62 60
56 56 57 57 56 55 55 54 53 52 53 52 51 52 52 52 53 54 55 52 53 54 54 54 55 55 59 57 58 60 63 63 64 65 65 68 68 68 70 67 66 65 63
56 55 55 55 54 54 54 53 52 50 50 50 50 51 50 49 52 53 53 52 52 53 53 52 53 54 55 56 56 58 60 61 62 63 64 66 69 70 71 70 68 68 67
54 55 55 53 53 54 52 52 52 51 50 49 50 51 50 50 51 52 52 50 50 52 52 53 53 54 54 55 56 55 58 58 58 61 62 62 62 63 65 68 68 66 62
55 55 55 54 52 52 53 53 54 53 51 47 48 49 48 49 50 50 51 46 48 47 51 53 53 53 53 53 55 56 55 56 59 60 60 60 62 64 64 66 65 67 63
56 57 57 55 54 55 55 55 54 53 54 53 53 51 49 49 49 50 50 47 47 44 45 47 50 52 52 52 53 54 54 56 58 59 61 59 59 60 63 68 66 67 66
55 55 56 56 53 52 55 56 55 54 53 53 53 49 48 50 48 48 49 49 50 44 44 45 48 51 50 50 50 51 52 53 53 54 56 58 60 62 63 66 67 66 67
54 53 53 54 54 54 54 54 50 52 48 48 45 44 44 47 47 49 48 48 49 46 46 48 49 48 48 47 50 49 49 51 50 50 50 52 53 57 60 64 66 68 68
53 53 54 54 53 53 50 49 48 45 43 42 41 41 42 44 45 45 45 47 49 47 47 45 47 48 48 47 46 45 46 47 48 48 48 50 50 51 53 57 62 65 63
53 52 51 49 50 49 49 48 46 49 45 43 42 43 43 41 42 46 45 45 45 45 46 44 43 43 43 43 43 43 43 43 44 47 48 48 47 47 49 52 54 58 61
49 47 45 45 44 45 44 44 47 46 46 45 45 45 43 46 46 45 43 42 42 44 44 41 42 44 44 44 44 44 44 45 44 44 43 43 47 47 47 49 51 53 55
50 48 44 45 44 43 44 44 42 43 45 43 41 41 43 43 43 42 41 42 42 44 42 40 40 42 43 44 43 45 45 45 49 45 45 45 45 45 46 47 48 50 51
50 46 48 47 47 47 47 47 44 44 46 46 44 42 41 40 40 41 41 42 42 42 41 42 42 41 41 41 41 41 42 43 43 44 42 41 43 44 43 45 45 47 48
49 49 50 49 48 48 49 48 45 46 47 46 45 44 44 40 40 41 42 44 44 42 41 42 42 42 42 41 41 41 43 42 44 43 39 39 38 40 43 44 43 45 47
52 53 52 50 47 48 47 46 46 47 48 47 46 47 47 45 46 46 46 46 45 45 45 44 44 44 43 43 43 42 42 41 40 39 39 38 38 37 37 43 43 43 47
48 50 53 50 47 47 47 47 47 48 48 48 48 48 45 46 46 46 46 46 46 45 46 47 48 45 45 44 43 42 42 41 40 40 39 38 38 37 37 37 43 44 46
50 49 48 48 47 47 47 47 47 47 47 48 49 47 45 47 47 48 48 47 47 48 48 51 47 48 45 44 43 43 43 41 39 39 39 38 37 36 36 36 37 41 46
50 48 47 47 46 47 46 45 46 47 48 47 43 42 42 45 48 48 48 48 48 48 47 48 50 48 47 46 44 44 41 38 38 37 37 36 36 35 35 36 36 37 39
49 48 46 46 46 45 46 47 49 46 44 42 42 42 44 47 48 49 48 47 47 47 47 45 43 42 42 41 40 38 38 38 37 37 38 37 36 35 35 36 35 35 36
45 46 46 46 47 47 48 48 45 43 42 40 40 43 44 44 43 42 41 40 39 39 39 39 39 39 38 39 39 38 37 32 35 33 35 37 37 38 36 35 36 35 36
46 47 48 48 48 50 48 45 44 41 40 40 43 43 40 38 38 38 38 38 37 36 36 36 36 38 38 37 38 36 32 31 32 30 31 34 35 36 35 35 36 34 35
Lifted_Index
1 1 1 1 2 4 5 6 7 7 7 7 7 6 6 5 5 4 3 2 1 -0 -1 -1 -1 -2 -2 -2 -3 -3 -2 -2 -2 -3 -3 -3 -3 -4 -4 -4 -4 -4 -4
2 1 1 2 4 5 6 7 7 8 8 7 7 7 6 6 6 5 5 4 3 3 1 0 0 -0 -1 -2 -2 -2 -2 -2 -2 -3 -3 -3 -3 -4 -4 -4 -4 -4 -4
2 2 3 4 6 7 8 8 8 8 8 8 8 7 7 7 6 6 6 6 6 5 4 4 3 2 1 0 -1 -1 -1 -2 -2 -2 -3 -3 -3 -3 -3 -3 -3 -4 -4
3 4 6 7 8 8 8 8 9 9 9 9 8 8 8 8 7 7 7 6 6 6 6 5 5 4 3 2 1 -0 -1 -1 -2 -2 -2 -2 -2 -2 -2 -2 -3 -4 -4
6 7 8 9 9 9 9 9 10 10 10 10 9 9 9 9 9 8 8 8 7 7 7 6 5 5 4 3 2 1 0 -0 -1 -1 -2 -2 -2 -2 -2 -2 -2 -3 -3
8 9 9 9 9 10 10 10 11 11 11 11 11 10 10 10 10 10 10 9 9 8 8 7 6 5 5 4 3 2 1 1 0 -0 -1 -1 -1 -2 -1 -1 -1 -2 -2
9 9 9 9 9 10 10 11 11 11 11 12 12 12 11 12 12 11 11 10 10 9 9 8 7 6 5 5 4 4 3 2 2 1 0 -0 -1 -2 -2 -1 -1 -1 -2
9 9 9 9 10 10 10 11 11 11 12 12 12 12 12 12 12 12 12 11 11 10 10 8 7 7 6 6 5 5 4 3 3 2 2 1 -0 -1 -2 -2 -2 -2 -2
9 9 9 10 10 10 10 10 10 11 11 12 12 12 12 13 13 13 12 11 11 11 10 9 8 8 7 6 6 5 5 4 3 3 3 2 1 0 -1 -1 -2 -2 -2
9 9 9 10 10 10 10 9 10 10 10 11 11 11 12 13 13 13 13 12 11 11 10 10 9 9 8 7 6 6 5 4 4 3 3 2 2 1 0 -0 -1 -2 -2
8 8 8 9 9 9 9 9 9 9 9 9 9 10 11 12 13 13 13 13 12 11 11 10 10 9 8 7 7 6 5 4 4 3 3 2 2 1 1 0 -0 -1 -1
9 8 8 8 8 8 8 8 8 8 8 8 9 9 10 10 11 12 13 12 12 11 11 10 10 9 9 8 7 6 5 4 3 3 3 2 2 2 1 1 0 -0 -1
9 9 8 8 8 8 8 8 8 8 9 9 9 9 9 9 10 11 11 11 11 10 10 10 10 9 9 8 8 7 6 5 4 4 3 3 3 3 2 2 1 0 0
9 8 8 8 9 9 8 8 8 9 9 9 10 10 9 9 9 9 10 10 10 9 9 9 9 9 9 8 8 8 7 7 6 5 5 4 4 3 3 2 2 1 1
9 9 9 9 9 9 9 9 9 9 9 10 10 9 9 9 9 9 9 9 9 9 9 9 8 8 8 8 7 8 8 8 7 7 6 6 5 4 3 3 3 2 2
9 9 10 10 10 9 9 9 9 9 9 9 9 9 9 9 9 9 9 9 9 9 8 8 8 7 7 7 6 6 7 7 7 7 7 7 6 5 4 4 3 3 3
9 10 10 9 9 9 8 8 9 9 9 8 8 8 8 8 8 8 8 8 8 8 8 8 8 8 7 7 7 6 6 6 6 7 8 8 8 6 5 4 4 3 3
9 9 9 8 8 8 8 8 8 8 8 7 7 7 7 7 7 7 7 7 7 7 7 7 7 7 7 7 7 7 7 6 6 7 8 9 9 8 7 5 4 4 4
8 8 7 7 7 7 7 7 7 7 6 6 6 6 6 6 6 6 6 6 6 6 6 7 7 7 7 7 7 7 7 7 7 7 8 9 9 9 9 7 6 5 4
7 7 7 6 6 6 6 6 6 6 5 5 5 6 6 6 5 5 6 6 6 6 6 6 6 7 7 7 7 7 7 7 7 7 8 9 9 10 10 9 7 6 6
6 6 6 6 6 6 6 6 5 5 5 5 5 5 5 5 5 5 5 5 5 5 5 5 6 6 6 6 7 7 7 7 7 8 8 9 9 10 10 10 9 8 7
6 6 5 6 6 6 6 6 5 5 5 5 5 5 6 5 5 4 4 4 4 4 4 5 5 6 6 6 6 6 7 7 8 9 9 10 10 10 10 10 10 9 8
5 5 5 5 5 6 6 6 5 6 6 6 6 6 6 5 5 4 4 4 4 4 4 5 5 5 5 6 7 7 8 9 9 10 10 10 10 11 10 10 10 10 9
5 5 5 5 5 5 5 5 5 6 6 7 7 7 7 6 6 6 6 5 5 5 6 6 6 6 7 8 8 9 10 10 11 11 10 10 11 11 11 10 10 10 10
5 5 5 4 5 5 5 5 6 7 7 8 8 8 8 8 8 8 8 8 8 8 8 8 8 9 9 10 10 11 11 11 11 11 11 10 10 11 11 11 10 10 10
5 5 4 4 4 5 5 6 6 7 8 8 8 9 9 10 10 10 10 10 10 10 10 10 10 11 11 11 11 11 11 11 11 11 11 10 10 10 11 11 11 10 10